TimeCDT,TemperatureF,Dew PointF,Humidity,Sea Level PressureIn,VisibilityMPH,Wind Direction,Wind SpeedMPH,Gust SpeedMPH,PrecipitationIn,Events,Conditions,WindDirDegrees,DateUTC
12:15 AM,15.8,10.4,79,29.84,3.0,WNW,12.7,19.6,N/A,Snow,Light Snow,290,2013-03-20 05:15:00
12:35 AM,15.8,10.4,79,29.84,2.5,WNW,9.2,-,N/A,Snow,Light Snow,290,2013-03-20 05:35:00
12:55 AM,14.0,10.4,86,29.83,3.0,WNW,8.1,21.9,N/A,Snow,Light Snow,290,2013-03-20 05:55:00
1:15 AM,14.0,10.4,86,29.83,4.0,West,8.1,16.1,N/A,Snow,Light Snow,280,2013-03-20 06:15:00
1:35 AM,14.0,10.4,86,29.83,3.0,West,9.2,-,N/A,Snow,Light Snow,280,2013-03-20 06:35:00
1:55 AM,14.0,10.4,86,29.83,2.5,West,8.1,-,N/A,Snow,Light Snow,280,2013-03-20 06:55:00
2:15 AM,14.0,10.4,86,29.83,2.5,West,9.2,-,N/A,Snow,Light Snow,270,2013-03-20 07:15:00
2:35 AM,12.2,8.6,85,29.84,2.5,WNW,5.8,-,N/A,Snow,Light Snow,290,2013-03-20 07:35:00
2:55 AM,12.2,8.6,85,29.83,3.0,West,8.1,17.3,N/A,Snow,Light Snow,280,2013-03-20 07:55:00
3:15 AM,12.2,6.8,79,29.83,5.0,West,9.2,-,N/A,Snow,Light Snow,270,2013-03-20 08:15:00
3:35 AM,10.4,5.0,79,29.83,7.0,WNW,9.2,17.3,N/A,Snow,Light Snow,290,2013-03-20 08:35:00
3:55 AM,10.4,5.0,79,29.84,4.0,West,9.2,16.1,N/A,,Haze,270,2013-03-20 08:55:00
4:15 AM,10.4,5.0,79,29.84,5.0,WNW,10.4,18.4,N/A,,Haze,290,2013-03-20 09:15:00
4:35 AM,8.6,3.2,79,29.83,5.0,WNW,8.1,17.3,N/A,,Haze,290,2013-03-20 09:35:00
4:55 AM,8.6,3.2,79,29.84,7.0,West,9.2,17.3,N/A,,Overcast,280,2013-03-20 09:55:00
5:15 AM,8.6,3.2,79,29.84,7.0,West,9.2,-,N/A,Snow,Light Snow,270,2013-03-20 10:15:00
5:35 AM,6.8,3.2,85,29.84,7.0,West,5.8,-,N/A,Snow,Light Snow,270,2013-03-20 10:35:00
5:55 AM,6.8,1.4,79,29.84,7.0,West,6.9,-,N/A,Snow,Light Snow,260,2013-03-20 10:55:00
6:15 AM,5.0,1.4,85,29.84,5.0,West,5.8,-,N/A,Snow,Light Snow,260,2013-03-20 11:15:00
6:35 AM,5.0,1.4,85,29.85,4.0,West,5.8,-,N/A,Snow,Light Snow,280,2013-03-20 11:35:00
6:55 AM,5.0,1.4,85,29.85,3.0,West,6.9,-,N/A,Snow,Light Snow,270,2013-03-20 11:55:00
7:15 AM,5.0,1.4,85,29.85,2.5,West,8.1,-,N/A,Snow,Light Snow,270,2013-03-20 12:15:00
7:35 AM,5.0,1.4,85,29.86,2.0,WSW,4.6,-,N/A,Snow,Light Snow,250,2013-03-20 12:35:00
7:55 AM,5.0,1.4,85,29.86,1.8,West,6.9,-,N/A,Snow,Light Snow,260,2013-03-20 12:55:00
8:15 AM,6.8,1.4,79,29.86,2.5,West,6.9,-,N/A,Snow,Light Snow,260,2013-03-20 13:15:00
8:35 AM,8.6,3.2,79,29.85,1.8,West,6.9,-,N/A,Snow,Light Snow,280,2013-03-20 13:35:00
8:55 AM,10.4,3.2,73,29.86,2.0,WNW,8.1,-,N/A,,Haze,290,2013-03-20 13:55:00
9:15 AM,10.4,5.0,79,29.85,1.8,WNW,11.5,16.1,N/A,Snow,Light Snow,290,2013-03-20 14:15:00
9:55 AM,14.0,5.0,67,29.85,5.0,WNW,5.8,17.3,N/A,,Haze,300,2013-03-20 14:55:00
10:15 AM,14.0,6.8,73,29.85,4.0,WNW,8.1,19.6,N/A,,Haze,290,2013-03-20 15:15:00
10:55 AM,15.8,6.8,68,29.86,3.0,NW,10.4,-,N/A,,Haze,310,2013-03-20 15:55:00
11:15 AM,15.8,8.6,73,29.87,2.5,West,10.4,-,N/A,,Haze,280,2013-03-20 16:15:00
11:35 AM,15.8,8.6,73,29.88,3.0,NW,10.4,16.1,N/A,Snow,Light Snow,310,2013-03-20 16:35:00
11:55 AM,17.6,8.6,68,29.88,3.0,NW,8.1,16.1,N/A,,Haze,310,2013-03-20 16:55:00
12:15 PM,17.6,8.6,68,29.88,1.8,NW,15.0,19.6,N/A,Snow,Light Snow,320,2013-03-20 17:15:00
12:35 PM,17.6,8.6,68,29.88,1.0,WNW,11.5,18.4,N/A,Snow,Light Snow,300,2013-03-20 17:35:00
12:55 PM,17.6,10.4,73,29.89,2.0,WNW,11.5,17.3,N/A,Snow,Light Snow,300,2013-03-20 17:55:00
1:35 PM,17.6,8.6,68,29.89,3.0,NW,10.4,17.3,N/A,,Haze,320,2013-03-20 18:35:00
1:55 PM,17.6,10.4,73,29.89,3.0,WNW,11.5,-,N/A,Snow,Light Snow,300,2013-03-20 18:55:00
2:15 PM,17.6,12.2,79,29.89,0.5,NNW,10.4,19.6,N/A,Snow,Light Snow,330,2013-03-20 19:15:00
2:35 PM,17.6,10.4,73,29.89,1.2,NW,8.1,16.1,N/A,Snow,Light Snow,310,2013-03-20 19:35:00
2:55 PM,17.6,8.6,68,29.89,1.8,NW,6.9,11.5,N/A,Snow,Light Snow,310,2013-03-20 19:55:00
3:15 PM,17.6,8.6,68,29.89,3.0,WNW,12.7,25.3,N/A,Snow,Light Snow,300,2013-03-20 20:15:00
3:35 PM,17.6,8.6,68,29.89,5.0,WNW,8.1,18.4,N/A,,Haze,300,2013-03-20 20:35:00
3:55 PM,19.4,5.0,54,29.89,7.0,NW,15.0,19.6,N/A,,Overcast,310,2013-03-20 20:55:00
4:15 PM,17.6,8.6,68,29.90,10.0,WNW,8.1,-,N/A,,Overcast,300,2013-03-20 21:15:00
4:35 PM,17.6,10.4,73,29.91,3.0,NW,10.4,-,N/A,Snow,Light Snow,320,2013-03-20 21:35:00
4:55 PM,17.6,8.6,68,29.91,4.0,NW,12.7,17.3,N/A,,Haze,310,2013-03-20 21:55:00
5:15 PM,17.6,8.6,68,29.91,10.0,WNW,9.2,-,N/A,,Overcast,300,2013-03-20 22:15:00
5:35 PM,17.6,8.6,68,29.93,4.0,NW,11.5,16.1,N/A,Snow,Light Snow,320,2013-03-20 22:35:00
5:55 PM,17.6,8.6,68,29.93,10.0,NW,8.1,-,N/A,,Overcast,310,2013-03-20 22:55:00
6:15 PM,17.6,8.6,68,29.94,10.0,NW,6.9,-,N/A,,Overcast,310,2013-03-20 23:15:00
6:35 PM,17.6,10.4,73,29.94,3.0,NNW,11.5,20.7,N/A,Snow,Light Snow,330,2013-03-20 23:35:00
6:55 PM,15.8,8.6,73,29.94,7.0,NW,6.9,16.1,N/A,,Overcast,320,2013-03-20 23:55:00
7:15 PM,15.8,8.6,73,29.95,10.0,NW,9.2,18.4,N/A,,Overcast,320,2013-03-21 00:15:00
7:35 PM,15.8,8.6,73,29.95,10.0,WNW,6.9,-,N/A,,Overcast,300,2013-03-21 00:35:00
7:55 PM,15.8,8.6,73,29.94,7.0,NW,6.9,-,N/A,Snow,Light Snow,310,2013-03-21 00:55:00
8:15 PM,15.8,10.4,79,29.95,10.0,WNW,6.9,-,N/A,Snow,Light Snow,300,2013-03-21 01:15:00
8:35 PM,15.8,10.4,79,29.95,10.0,WNW,6.9,-,N/A,Snow,Light Snow,300,2013-03-21 01:35:00
8:55 PM,15.8,10.4,79,29.96,10.0,WNW,5.8,-,N/A,,Overcast,300,2013-03-21 01:55:00
9:15 PM,15.8,10.4,79,29.95,10.0,WNW,8.1,-,N/A,Snow,Light Snow,300,2013-03-21 02:15:00
9:35 PM,15.8,10.4,79,29.95,10.0,NW,6.9,-,N/A,,Overcast,310,2013-03-21 02:35:00
9:55 PM,15.8,10.4,79,29.95,10.0,NW,5.8,-,N/A,,Overcast,310,2013-03-21 02:55:00
10:15 PM,15.8,10.4,79,29.95,10.0,NW,5.8,-,N/A,Snow,Light Snow,310,2013-03-21 03:15:00
10:35 PM,15.8,10.4,79,29.95,10.0,WNW,4.6,-,N/A,Snow,Light Snow,300,2013-03-21 03:35:00
10:55 PM,15.8,10.4,79,29.94,10.0,WNW,5.8,-,N/A,Snow,Light Snow,300,2013-03-21 03:55:00
11:15 PM,15.8,10.4,79,29.94,10.0,WNW,6.9,-,N/A,Snow,Light Snow,300,2013-03-21 04:15:00
11:35 PM,15.8,10.4,79,29.94,7.0,NW,9.2,-,N/A,Snow,Light Snow,310,2013-03-21 04:35:00
11:55 PM,15.8,12.2,86,29.94,10.0,NW,6.9,-,N/A,Snow,Light Snow,310,2013-03-21 04:55:00